Temp
63 63 63 63 63 63 63 63 63 63 63 63 63 63 63 63 63 59 60 70 68 70 68 65 65 63 63 60 60 57 49 44 49 48 55 58 58 61 61 62 61 63 63 65 55
62 62 63 63 63 63 63 63 63 62 63 63 63 63 63 62 57 59 70 72 70 70 65 64 61 62 58 57 57 54 46 50 54 53 55 58 59 61 60 59 59 61 62 57 53
62 62 62 62 62 63 63 63 63 62 62 62 62 62 62 59 59 65 72 72 70 70 66 64 62 62 56 55 55 52 50 53 56 57 57 57 55 60 58 57 59 61 65 58 53
61 61 62 62 62 63 63 63 63 62 62 62 62 62 61 56 54 63 70 71 70 67 66 62 60 56 53 52 55 50 53 54 57 57 55 55 56 56 57 66 66 64 65 60 55
61 61 61 61 61 62 63 63 63 62 62 62 62 62 58 54 62 63 67 67 65 65 64 60 58 55 52 51 52 49 52 55 55 55 55 55 55 56 55 63 64 61 60 60 58
60 60 60 60 61 62 62 63 63 62 62 62 62 61 55 51 64 63 62 62 63 63 60 60 59 58 54 52 52 52 52 53 54 55 54 54 59 54 58 61 60 57 59 59 57
60 60 60 60 61 61 62 62 62 62 61 62 62 57 52 60 61 61 63 61 61 61 58 59 60 59 55 51 53 51 50 51 51 53 52 51 51 48 62 56 59 59 58 56 57
60 60 60 60 60 61 61 61 61 61 62 61 61 53 55 61 58 60 59 59 59 60 60 60 60 58 54 54 52 47 45 43 51 49 50 54 47 59 60 55 58 58 59 58 59
60 59 60 60 60 60 61 61 60 62 62 61 52 52 55 61 58 59 59 59 59 59 59 64 59 52 51 46 43 41 39 39 45 51 49 49 47 55 56 55 58 59 59 60 65
59 59 60 60 60 60 61 61 60 60 59 59 61 50 57 56 57 58 57 60 56 56 55 53 48 46 42 43 38 39 36 38 40 50 45 45 46 53 57 53 57 59 62 64 62
60 60 60 60 60 61 57 54 54 52 51 53 53 53 55 55 57 55 58 58 56 52 46 46 42 40 48 46 44 41 40 39 43 50 45 49 50 53 56 55 57 60 61 60 60
60 60 60 60 60 60 54 51 48 49 44 53 52 53 55 56 52 53 58 53 50 45 44 42 37 46 46 44 44 42 41 41 46 49 43 43 47 54 56 57 59 60 61 60 59
59 59 59 60 59 56 50 49 51 49 41 48 50 49 52 56 50 52 57 49 46 42 42 42 45 47 45 42 43 39 38 42 41 43 43 40 41 44 50 51 55 57 58 58 57
59 59 59 59 56 50 49 51 51 49 38 42 46 50 51 51 46 51 51 50 43 44 41 41 45 45 40 41 43 40 45 44 41 37 34 41 34 45 56 56 55 54 54 53 55
57 58 59 59 55 54 55 54 53 48 32 46 45 54 50 47 45 47 50 47 41 41 42 43 41 39 39 43 43 42 43 40 38 35 33 34 32 39 43 46 51 56 55 55 56
57 57 58 57 55 54 55 55 54 42 33 43 46 44 43 44 44 45 45 49 45 40 39 41 44 44 45 43 44 43 39 38 33 33 27 35 36 36 42 47 49 54 55 54 53
55 56 56 58 54 54 54 53 41 34 47 42 41 43 42 42 43 43 40 38 39 35 33 38 39 42 44 40 41 42 37 30 27 24 29 35 32 41 48 49 51 53 54 51 50
55 55 54 57 55 55 54 45 33 41 43 48 46 44 42 46 43 40 37 37 43 41 35 33 36 40 43 45 42 38 40 32 24 22 34 31 31 41 48 51 49 51 51 49 50
54 50 50 54 55 55 49 38 39 40 46 45 46 41 37 42 46 40 41 46 48 45 41 35 33 40 41 41 44 37 37 42 33 24 22 35 41 46 45 48 48 46 47 42 42
45 45 48 54 55 52 43 39 43 48 48 49 41 44 36 37 40 39 37 39 41 42 46 41 33 40 40 39 39 42 43 34 32 23 22 33 32 37 44 48 42 35 36 38 39
43 41 47 55 55 46 36 37 43 49 51 46 43 42 42 39 43 39 37 43 43 43 44 42 37 38 38 35 38 36 36 37 37 33 26 25 34 46 40 32 32 34 36 36 37
41 34 49 54 42 41 38 41 45 43 46 46 45 44 41 42 40 40 40 45 47 46 40 43 38 32 36 42 42 42 39 40 34 32 34 35 36 53 34 35 34 34 36 36 37
38 36 48 50 35 37 42 41 43 41 42 43 41 43 43 40 36 40 42 45 46 44 41 41 34 29 30 34 34 35 36 39 39 37 30 27 31 45 41 34 33 32 34 36 37
35 28 35 44 40 39 37 36 36 42 42 44 42 42 39 37 40 37 39 41 41 41 43 42 34 32 28 34 35 31 33 35 33 26 28 28 30 38 43 33 32 33 34 35 37
32 29 35 25 31 36 38 36 33 32 40 41 38 37 36 33 34 34 36 36 37 38 36 36 30 33 35 34 31 29 28 29 27 30 25 29 29 36 31 28 31 34 34 34 34
29 28 32 28 34 34 34 32 32 34 37 35 34 31 32 30 34 30 30 30 27 30 32 32 25 26 19 30 31 27 29 29 30 31 32 32 31 29 30 31 30 31 33 32 33
31 33 34 28 28 26 25 29 29 31 31 32 31 28 27 32 32 33 32 32 30 28 26 26 24 19 19 27 22 18 24 30 29 26 26 24 24 21 22 28 29 29 29 30 30
MSLP
1020.60 1020.52 1020.32 1020.17 1020.02 1019.85 1019.61 1019.47 1019.31 1019.14 1018.97 1018.76 1018.50 1018.29 1018.07 1017.77 1017.38 1017.40 1016.86 1015.05 1015.04 1015.41 1015.78 1016.51 1016.77 1017.08 1017.43 1018.16 1018.61 1019.22 1020.02 1020.21 1019.41 1018.98 1017.31 1016.58 1016.40 1015.81 1015.58 1015.73 1015.83 1015.56 1015.41 1015.12 1015.88
1020.72 1020.60 1020.49 1020.29 1020.10 1019.90 1019.67 1019.48 1019.35 1019.20 1018.99 1018.74 1018.45 1018.15 1017.95 1017.73 1017.44 1016.56 1014.73 1014.67 1014.87 1015.21 1015.91 1016.47 1017.12 1017.31 1017.92 1018.40 1018.80 1019.25 1020.03 1019.20 1018.05 1017.54 1016.85 1016.32 1016.15 1015.67 1015.71 1015.55 1015.25 1015.19 1014.85 1015.27 1016.09
1020.83 1020.72 1020.54 1020.38 1020.20 1019.96 1019.73 1019.50 1019.24 1019.07 1018.84 1018.58 1018.31 1018.04 1017.76 1017.62 1017.13 1014.92 1014.15 1014.37 1014.73 1015.02 1015.47 1016.20 1016.83 1017.28 1018.01 1018.36 1018.62 1018.94 1018.91 1018.01 1017.26 1016.80 1016.51 1016.26 1015.83 1015.38 1015.41 1014.98 1014.14 1014.37 1014.18 1014.75 1015.55
1020.81 1020.73 1020.59 1020.40 1020.18 1019.94 1019.64 1019.43 1019.17 1018.84 1018.61 1018.42 1018.14 1017.78 1017.50 1017.44 1016.58 1014.43 1014.19 1014.29 1014.75 1015.18 1015.72 1016.52 1017.11 1017.57 1018.05 1018.40 1018.23 1018.79 1017.75 1017.44 1016.75 1016.48 1016.48 1016.16 1015.56 1015.38 1015.20 1013.15 1012.60 1013.10 1013.51 1013.99 1014.65
1020.74 1020.63 1020.54 1020.38 1020.15 1019.87 1019.53 1019.16 1018.89 1018.65 1018.41 1018.13 1018.00 1017.75 1017.36 1017.16 1015.50 1014.35 1014.40 1014.63 1015.03 1015.30 1015.77 1016.45 1016.99 1017.43 1017.85 1018.10 1018.29 1018.45 1017.61 1017.18 1016.65 1016.69 1016.35 1016.05 1015.11 1015.21 1014.11 1012.56 1012.27 1012.90 1013.23 1013.25 1013.61
1020.61 1020.57 1020.41 1020.26 1020.06 1019.77 1019.45 1019.06 1018.66 1018.32 1018.07 1017.94 1017.79 1017.73 1017.55 1016.62 1014.18 1014.39 1014.72 1014.97 1014.84 1015.29 1015.87 1016.23 1016.51 1016.76 1017.34 1017.69 1018.01 1017.57 1017.38 1017.01 1016.64 1016.51 1016.35 1016.23 1014.75 1014.90 1012.62 1012.11 1012.08 1012.52 1012.19 1012.37 1012.77
1020.36 1020.31 1020.21 1019.99 1019.74 1019.41 1019.03 1018.62 1018.21 1017.81 1017.47 1017.40 1017.59 1017.66 1017.37 1014.89 1014.23 1014.52 1014.67 1014.91 1015.11 1015.29 1015.75 1015.84 1015.92 1016.43 1016.99 1017.27 1017.12 1017.24 1017.39 1016.70 1016.10 1015.55 1015.95 1015.88 1015.35 1013.80 1011.76 1012.43 1011.97 1011.55 1011.60 1011.52 1011.52
1020.26 1020.07 1019.94 1019.77 1019.49 1019.04 1018.57 1018.07 1017.63 1017.26 1016.84 1016.98 1017.36 1017.47 1016.26 1014.40 1014.56 1014.87 1014.94 1015.18 1015.28 1015.41 1015.57 1015.74 1016.01 1016.55 1016.93 1017.07 1017.23 1017.56 1017.75 1017.20 1015.55 1015.61 1015.41 1015.56 1014.27 1011.99 1011.66 1011.98 1011.78 1011.14 1010.90 1010.74 1010.22
1020.05 1019.96 1019.80 1019.54 1019.28 1018.85 1018.22 1017.71 1017.42 1017.20 1016.92 1017.05 1017.58 1017.41 1015.84 1014.63 1014.54 1014.62 1014.77 1015.14 1015.51 1015.75 1015.94 1016.06 1016.35 1017.16 1017.37 1017.66 1018.17 1018.09 1017.67 1017.28 1016.45 1015.08 1015.35 1015.40 1013.85 1012.23 1011.97 1011.95 1011.54 1010.73 1010.43 1010.17 1009.19
1019.80 1019.80 1019.68 1019.49 1019.13 1018.66 1017.83 1017.39 1017.26 1017.35 1017.39 1017.38 1017.24 1017.45 1015.02 1014.55 1014.54 1014.67 1014.73 1015.08 1015.66 1016.13 1016.49 1016.71 1017.45 1017.80 1018.34 1018.36 1018.00 1017.49 1017.80 1017.26 1016.78 1015.34 1015.18 1014.93 1013.60 1012.64 1011.78 1011.79 1010.85 1010.36 1009.18 1009.07 1008.95
1019.52 1019.52 1019.47 1019.36 1019.09 1018.55 1017.94 1017.57 1018.03 1017.95 1017.65 1017.19 1016.74 1016.15 1015.00 1014.58 1014.62 1014.89 1014.99 1015.20 1015.69 1016.49 1017.18 1017.51 1018.14 1017.95 1017.22 1017.01 1017.14 1017.35 1017.28 1016.98 1016.28 1015.36 1015.16 1014.11 1013.04 1012.46 1011.64 1010.84 1009.36 1008.59 1008.43 1008.15 1008.28
1019.20 1019.24 1019.18 1019.10 1018.99 1018.56 1018.60 1019.19 1019.68 1019.91 1018.55 1016.60 1016.02 1015.74 1014.52 1014.44 1014.69 1014.95 1015.11 1015.53 1016.07 1016.86 1017.51 1018.31 1017.92 1017.17 1017.20 1017.35 1017.75 1017.61 1017.39 1016.89 1015.66 1014.92 1015.23 1013.95 1012.19 1011.26 1010.49 1008.81 1008.30 1007.83 1007.47 1008.01 1007.78
1019.00 1018.95 1018.96 1018.89 1018.76 1019.01 1019.61 1019.94 1019.93 1020.02 1019.48 1016.50 1015.61 1015.33 1014.92 1014.91 1014.99 1014.95 1015.10 1015.70 1016.15 1017.02 1017.19 1017.15 1016.63 1016.48 1017.02 1017.43 1017.75 1017.24 1017.43 1016.26 1016.05 1015.63 1014.86 1014.17 1011.68 1010.32 1009.12 1008.61 1007.65 1006.73 1007.61 1007.62 1008.02
1019.05 1019.02 1018.92 1018.80 1019.01 1019.43 1019.73 1019.70 1019.81 1020.11 1019.27 1016.58 1015.42 1014.93 1014.81 1014.76 1015.26 1015.34 1015.30 1015.47 1016.09 1016.34 1017.15 1016.85 1016.07 1016.37 1016.94 1017.02 1016.87 1017.09 1016.03 1016.26 1016.33 1016.77 1016.03 1014.56 1012.18 1010.17 1008.91 1008.07 1007.26 1007.11 1007.12 1007.73 1008.30
1019.14 1019.07 1018.99 1018.80 1019.15 1019.35 1019.48 1019.55 1019.79 1020.12 1018.55 1016.02 1015.30 1014.87 1014.93 1015.39 1015.79 1015.75 1015.65 1015.62 1016.03 1016.48 1016.92 1015.98 1015.96 1016.07 1016.36 1015.69 1016.11 1015.95 1015.63 1016.23 1016.57 1016.89 1016.60 1015.27 1013.89 1009.96 1008.45 1007.73 1007.71 1007.31 1007.63 1007.91 1008.28
1019.21 1019.13 1018.95 1019.10 1019.36 1019.43 1019.71 1019.09 1019.72 1019.86 1017.20 1015.57 1015.35 1015.17 1015.14 1015.26 1015.81 1016.03 1016.07 1015.97 1016.40 1016.31 1016.80 1016.40 1016.02 1015.59 1014.86 1015.02 1015.20 1015.64 1015.98 1016.58 1017.16 1017.21 1016.27 1014.39 1013.23 1010.56 1008.58 1007.31 1007.34 1007.02 1007.64 1008.31 1009.21
1019.49 1019.27 1019.12 1018.92 1019.25 1019.41 1019.65 1019.70 1019.71 1018.63 1016.71 1016.51 1016.05 1015.80 1016.09 1015.88 1015.90 1016.29 1016.51 1016.62 1016.83 1016.96 1017.14 1016.68 1015.89 1015.21 1014.90 1015.33 1015.37 1015.73 1016.53 1017.39 1017.37 1017.30 1015.20 1013.70 1013.11 1010.07 1008.62 1007.93 1008.01 1008.18 1008.42 1009.36 1009.63
1019.43 1019.11 1018.87 1018.85 1019.16 1019.29 1019.34 1019.62 1019.19 1017.24 1016.70 1015.78 1015.85 1015.82 1016.08 1015.47 1016.52 1016.95 1016.91 1016.66 1016.58 1017.00 1017.40 1017.34 1015.63 1015.20 1014.75 1014.54 1014.52 1015.27 1015.69 1016.62 1016.64 1016.56 1014.72 1013.86 1011.44 1009.33 1008.26 1008.58 1009.00 1009.30 1009.85 1010.30 1011.55
1019.21 1019.26 1019.11 1018.43 1018.80 1019.16 1019.54 1018.74 1016.99 1016.49 1015.55 1015.58 1015.69 1016.06 1015.91 1015.68 1015.95 1016.45 1015.86 1015.24 1014.70 1015.20 1016.24 1016.60 1015.08 1014.56 1014.64 1014.03 1014.43 1015.31 1015.30 1014.69 1015.39 1016.51 1015.36 1012.69 1010.18 1009.41 1008.85 1009.84 1009.96 1011.56 1012.04 1012.90 1013.57
1019.54 1019.55 1019.02 1017.96 1018.59 1018.89 1019.28 1017.56 1016.34 1015.89 1015.63 1015.81 1015.64 1015.90 1016.12 1016.15 1016.28 1016.45 1016.30 1015.81 1015.20 1015.58 1015.53 1016.58 1015.75 1014.71 1014.66 1014.81 1014.33 1014.44 1014.57 1015.03 1015.45 1015.66 1014.65 1011.93 1010.98 1010.39 1010.72 1010.79 1012.15 1013.27 1014.38 1014.82 1014.99
1019.72 1019.41 1018.68 1017.87 1018.71 1018.85 1018.10 1017.36 1016.02 1015.54 1015.68 1015.90 1015.93 1015.81 1015.87 1016.12 1016.36 1016.29 1016.41 1015.98 1015.44 1015.36 1015.71 1016.32 1016.53 1015.03 1015.16 1014.90 1014.59 1014.78 1014.60 1014.73 1015.02 1014.85 1013.81 1012.42 1009.90 1009.76 1012.66 1014.28 1015.07 1015.79 1016.08 1016.33 1016.41
1019.71 1019.70 1018.33 1018.01 1018.86 1018.14 1017.43 1017.04 1016.87 1016.15 1016.10 1016.04 1015.89 1015.83 1015.92 1016.15 1016.18 1016.05 1015.78 1015.35 1014.99 1015.16 1015.76 1015.52 1015.64 1015.66 1014.36 1013.82 1013.60 1013.76 1013.70 1013.97 1013.87 1013.33 1012.70 1011.61 1009.82 1009.71 1013.00 1014.72 1016.10 1016.89 1017.23 1016.91 1017.12
1019.92 1019.51 1018.32 1018.24 1018.41 1017.95 1017.48 1017.32 1017.21 1016.63 1016.35 1016.33 1016.09 1016.07 1016.24 1016.57 1016.40 1015.64 1015.70 1015.47 1015.91 1015.73 1015.55 1015.87 1015.43 1015.10 1014.47 1014.30 1014.35 1014.16 1014.12 1013.95 1013.91 1013.34 1012.67 1012.27 1011.03 1011.47 1013.13 1014.95 1016.22 1016.52 1017.67 1017.38 1017.11
1020.65 1020.43 1019.55 1018.56 1018.44 1018.24 1018.36 1017.61 1017.39 1016.59 1016.45 1016.48 1016.30 1016.30 1016.66 1016.96 1016.93 1016.57 1016.41 1016.73 1016.92 1017.46 1017.01 1016.92 1015.69 1016.03 1015.51 1014.70 1015.29 1015.56 1015.51 1015.10 1015.13 1014.54 1013.64 1013.36 1013.23 1013.64 1013.89 1015.25 1016.67 1016.95 1017.21 1017.41 1017.16
1020.89 1020.74 1020.36 1019.95 1019.43 1019.00 1019.03 1018.28 1017.84 1017.75 1017.21 1016.95 1017.13 1017.33 1017.69 1017.91 1017.78 1017.91 1017.90 1017.89 1018.11 1018.47 1018.39 1018.13 1017.20 1016.97 1016.30 1016.25 1016.77 1016.81 1016.70 1016.14 1015.79 1015.35 1015.35 1014.30 1014.49 1014.88 1016.04 1016.87 1017.08 1017.03 1017.07 1017.33 1017.29
1021.22 1021.24 1021.10 1020.95 1020.57 1020.03 1019.56 1018.64 1018.50 1018.59 1018.94 1018.13 1018.44 1018.77 1018.94 1019.16 1019.40 1019.27 1019.88 1019.99 1019.93 1019.93 1019.72 1019.52 1018.91 1018.76 1018.20 1017.73 1017.74 1017.32 1016.83 1016.04 1015.64 1015.54 1015.12 1015.28 1015.25 1016.46 1017.32 1017.68 1017.71 1017.19 1017.38 1017.27 1017.34
1021.87 1021.33 1021.29 1021.60 1021.31 1020.91 1020.09 1019.55 1019.67 1019.80 1020.30 1020.14 1020.09 1020.07 1020.07 1020.20 1020.75 1021.07 1021.26 1021.49 1021.37 1021.30 1021.05 1020.93 1020.74 1020.70 1019.69 1019.31 1019.31 1018.17 1016.12 1015.63 1015.45 1015.87 1016.29 1016.67 1017.31 1017.83 1018.17 1018.49 1018.06 1017.30 1017.41 1017.27 1017.23
Wind_Speed
12 12 13 13 14 13 12 12 12 11 11 11 11 11 11 11 8 2 6 8 4 14 8 7 4 3 3 3 3 3 4 2 5 6 5 2 2 4 1 2 3 7 5 4 3
10 11 12 13 13 13 12 12 12 12 11 11 12 11 11 11 2 6 7 4 11 14 7 7 5 4 3 2 1 4 4 9 6 6 5 3 5 3 2 4 6 6 7 4 5
9 10 11 11 12 13 13 12 12 12 12 11 12 13 12 5 5 6 1 9 14 8 7 4 6 5 3 2 5 5 7 6 6 8 3 4 3 4 4 7 11 9 8 6 6
9 10 11 12 12 13 13 13 13 13 12 12 12 12 13 0 7 0 1 9 12 8 6 7 5 4 4 5 4 3 9 6 4 4 2 5 3 4 8 18 9 12 6 4 8
8 8 10 11 12 14 14 15 15 14 13 11 10 11 2 1 10 3 7 10 7 6 8 7 5 6 5 5 3 4 5 5 6 5 8 4 14 6 12 20 9 7 8 12 10
8 9 9 10 12 14 15 16 16 15 14 12 8 8 1 6 2 7 8 7 7 7 7 7 8 7 4 3 7 3 5 7 6 7 7 6 19 6 13 13 13 9 13 12 10
7 8 9 10 11 13 15 17 17 17 17 12 6 1 2 17 2 5 7 5 5 5 6 4 7 6 5 3 3 1 7 8 7 7 9 6 10 13 20 3 15 11 10 10 13
7 8 9 11 12 14 17 18 17 14 9 5 7 3 9 1 5 4 2 3 3 2 1 4 5 4 2 1 4 3 1 5 2 6 2 7 12 20 5 6 13 13 10 10 11
6 7 9 10 12 15 17 18 8 6 6 11 3 3 9 3 1 1 3 4 5 3 4 4 5 3 2 3 5 2 6 7 10 9 5 7 10 13 5 3 11 13 12 13 18
6 7 9 11 12 15 20 10 2 1 3 2 1 2 4 3 1 3 2 6 4 5 4 4 5 3 3 4 9 9 5 6 6 5 6 6 16 14 17 8 19 19 23 19 17
6 6 8 9 12 15 10 4 6 4 4 4 5 5 5 1 1 1 1 5 5 5 6 1 4 9 19 15 2 2 6 7 7 8 5 19 18 18 17 16 23 23 19 17 14
6 6 7 8 10 13 3 6 2 3 9 8 12 8 5 1 2 2 4 6 5 5 6 3 7 14 1 3 7 8 12 14 11 13 5 11 20 21 24 25 24 21 21 12 7
6 5 5 7 6 4 2 2 2 3 3 9 5 4 4 6 6 5 10 3 5 7 8 10 7 5 8 4 7 5 7 12 12 7 5 8 8 4 6 7 11 18 13 12 9
6 6 6 6 3 1 1 1 3 1 4 8 2 3 1 2 2 2 1 2 2 9 7 7 5 7 3 6 10 9 10 13 6 4 5 3 11 3 18 18 10 12 7 5 8
8 8 6 5 2 1 2 4 3 2 8 3 1 3 2 2 1 4 1 2 3 5 5 9 7 5 5 10 8 11 1 3 2 3 3 3 5 8 1 5 5 7 8 6 6
8 6 3 2 1 2 1 4 1 1 9 4 2 3 1 1 2 2 3 4 1 2 2 7 5 6 9 4 7 2 1 3 4 1 5 13 10 5 3 4 1 5 6 9 5
8 7 1 1 2 4 1 2 2 6 6 8 4 4 5 4 3 3 3 2 1 4 3 4 5 4 3 1 2 3 5 5 5 2 8 4 3 6 7 6 4 6 8 5 5
10 4 2 2 5 5 2 2 7 3 4 5 4 1 4 3 3 3 1 2 6 4 3 4 11 7 4 8 8 7 10 7 7 4 14 2 9 6 9 5 4 7 8 6 15
9 1 2 4 7 3 2 7 6 6 5 4 3 5 4 4 6 5 10 21 14 13 8 6 10 3 5 3 2 3 5 2 1 2 1 7 12 8 6 7 5 12 18 20 20
1 1 4 3 9 3 4 12 7 6 2 4 6 6 7 4 4 2 1 2 4 2 5 5 8 3 3 1 2 7 3 1 2 2 7 13 7 7 9 11 18 20 18 16 14
2 2 3 6 4 3 8 8 7 8 6 6 7 10 5 3 4 5 7 6 8 6 8 9 6 8 3 5 8 2 3 3 3 6 5 6 12 8 11 11 8 8 10 11 13
2 2 2 5 5 3 8 4 4 4 2 4 4 12 13 11 10 11 13 11 6 7 7 9 5 7 14 12 8 8 8 7 12 16 12 19 21 12 14 12 8 8 8 7 7
3 1 3 1 5 7 5 6 5 4 6 4 5 5 3 9 7 11 10 2 5 4 2 2 5 4 6 3 3 4 1 6 9 10 19 14 7 7 5 10 9 7 7 7 7
2 2 4 2 2 4 7 10 8 3 6 8 7 4 6 10 8 10 9 5 6 5 4 2 3 12 15 10 6 5 7 7 4 4 5 9 13 17 22 14 10 6 5 6 6
1 2 1 3 4 6 4 7 2 4 4 3 1 3 2 4 5 7 2 2 2 7 4 3 11 13 17 8 5 6 10 14 16 17 15 21 22 24 6 9 8 5 4 6 9
3 3 2 1 4 3 6 6 9 6 6 11 10 4 3 6 10 15 3 3 2 4 3 4 3 4 5 7 7 12 18 19 18 21 22 22 26 7 1 5 6 8 5 6 3
1 2 3 3 2 4 4 2 2 1 3 4 5 2 2 2 3 3 5 6 5 4 2 2 2 1 9 11 8 13 18 18 10 1 2 9 2 1 3 6 6 7 7 7 6
Wind_Direction
26 24 23 22 19 13 11 7 3 1 359 353 349 344 339 334 314 166 232 219 184 158 91 114 60 76 63 79 75 129 67 215 243 170 243 207 256 189 172 240 212 206 212 232 113
15 15 13 14 13 12 9 4 357 352 349 345 341 338 336 337 260 237 240 175 137 148 108 136 143 123 70 100 64 107 142 222 214 198 222 237 198 249 232 236 244 274 253 161 148
1 0 2 3 1 359 357 353 349 343 340 338 336 332 331 329 332 245 255 184 164 152 125 100 110 116 150 140 194 173 205 215 243 227 231 245 243 212 193 262 229 211 242 187 186
346 347 348 348 348 345 343 340 336 334 332 330 331 328 325 215 293 230 85 156 149 119 100 104 103 131 176 203 187 214 241 204 245 214 200 239 282 225 199 254 239 216 226 176 206
329 332 334 336 337 335 333 331 327 321 319 319 323 327 330 356 248 129 105 124 120 126 146 140 143 146 190 190 158 230 255 229 239 257 257 288 257 221 237 253 263 239 234 240 230
319 322 326 327 328 329 325 322 317 311 306 302 304 318 140 254 218 141 130 142 155 134 157 140 189 195 183 205 183 224 261 268 277 243 247 198 272 136 245 260 277 232 247 247 232
316 321 324 323 322 321 316 316 315 310 298 275 248 241 174 242 85 142 146 173 168 150 154 199 156 146 140 254 226 271 300 307 218 240 224 161 286 234 252 228 275 265 264 257 237
315 320 324 324 323 321 317 317 318 315 313 243 181 167 239 55 119 116 137 60 77 103 146 161 140 115 178 152 353 278 150 302 259 149 248 162 260 273 244 193 261 280 283 279 267
302 314 323 324 323 319 315 316 317 8 54 127 119 159 264 145 205 179 157 148 101 67 53 92 105 144 81 127 9 308 244 226 313 206 137 186 261 263 282 240 279 284 276 276 280
302 318 327 328 328 324 320 320 256 7 104 241 78 17 274 270 128 110 73 119 115 111 65 67 53 132 44 118 231 222 229 242 243 280 197 214 252 274 287 272 273 268 271 269 272
294 311 323 328 331 329 343 14 10 350 27 220 215 248 273 100 91 36 126 100 102 83 166 40 127 196 219 208 98 170 227 248 258 256 299 277 274 275 272 274 271 268 271 264 262
284 301 312 325 336 333 22 77 161 198 300 254 251 265 249 209 283 178 123 146 148 169 113 52 231 229 28 155 232 254 269 272 275 261 193 264 281 277 261 258 265 275 279 280 271
301 299 298 299 335 38 29 63 113 132 248 286 215 213 267 146 221 232 150 140 152 152 193 193 219 174 191 189 255 226 227 253 257 321 247 314 271 229 269 272 262 259 266 272 273
3 357 332 307 78 213 66 154 160 176 296 280 308 328 79 137 217 332 278 137 184 210 187 231 251 188 147 211 204 268 235 257 276 356 249 37 291 126 285 271 292 291 267 311 297
33 10 346 18 135 111 170 147 138 50 288 282 21 278 5 128 137 358 303 51 218 188 146 247 178 163 181 218 145 230 249 243 208 214 336 280 269 275 225 271 282 290 16 33 33
30 28 105 57 23 73 343 124 323 262 252 335 37 356 45 57 24 14 35 39 57 169 293 261 324 177 209 186 179 121 71 49 51 89 272 211 194 305 205 192 121 348 49 37 34
7 2 14 167 164 137 160 9 235 224 352 334 348 31 339 348 4 31 37 344 248 351 321 307 238 268 158 145 75 122 73 323 317 0 243 358 260 257 287 255 4 358 323 34 3
342 323 220 213 152 163 162 104 224 203 247 213 229 256 211 114 61 339 26 290 212 177 162 286 298 189 180 203 190 179 168 173 228 243 292 118 247 255 230 356 102 11 31 13 15
331 15 233 196 163 159 155 226 234 188 194 197 148 242 252 251 194 193 217 252 262 173 201 205 253 243 220 156 162 165 190 198 128 118 296 245 278 319 349 96 86 36 29 24 26
60 2 243 161 150 123 227 241 217 206 48 330 247 186 231 224 230 183 226 11 355 208 44 333 290 244 299 63 271 179 179 85 22 222 231 271 272 223 319 346 31 28 17 9 19
95 146 281 144 151 171 220 234 243 226 172 226 253 262 240 323 228 183 218 235 200 183 147 169 222 263 360 205 200 150 226 223 336 165 240 252 262 131 88 72 53 30 31 23 18
177 202 270 166 186 197 227 202 252 266 321 275 292 255 256 270 269 267 267 240 187 172 198 193 189 230 242 240 211 190 212 220 242 259 229 240 246 314 85 84 75 49 33 28 26
154 252 314 249 205 223 243 250 228 199 180 225 239 222 229 272 275 243 260 298 5 207 217 84 245 265 283 253 12 190 278 252 277 282 249 254 246 11 136 115 58 61 28 19 20
128 105 316 296 320 210 230 257 239 267 234 205 239 261 278 270 258 272 291 345 352 343 326 326 223 248 257 266 356 259 276 305 253 252 311 284 309 312 307 349 25 52 38 5 359
44 218 231 215 270 241 219 260 240 292 297 58 269 212 77 280 296 268 279 342 68 357 7 295 261 267 264 273 311 283 270 269 259 264 265 288 282 276 304 324 346 337 344 332 337
141 134 12 274 315 220 200 246 257 281 291 271 233 17 358 252 267 293 275 179 227 346 0 6 299 347 272 280 272 287 282 267 270 271 268 265 265 90 216 298 304 322 302 305 324
294 356 107 279 193 143 220 205 91 334 53 58 83 11 325 168 148 192 209 249 244 255 270 264 254 272 268 302 328 283 255 263 248 208 271 261 259 209 258 255 269 306 298 288 286